Waarnemingen

Advertentie
Mijn weer
Cozzo Spadaro, Italië (16480): temperatuur & dauwpunt: 11.01.2019 01:00:00 - 17.01.2019 01:00:00 (CET)Cozzo Spadaro, Italië (16480): windsnelheid: 11.01.2019 01:00:00 - 17.01.2019 01:00:00 (CET)Cozzo Spadaro, Italië (16480): windrichting: 11.01.2019 01:00:00 - 17.01.2019 01:00:00 (CET)Cozzo Spadaro, Italië (16480): luchtdruk: 11.01.2019 01:00:00 - 17.01.2019 01:00:00 (CET)Cozzo Spadaro, Italië (16480): zicht: 11.01.2019 01:00:00 - 17.01.2019 01:00:00 (CET)Cozzo Spadaro, Italië (16480): Zonneschijnduur: 11.01.2019 01:00:00 - 17.01.2019 01:00:00 (CET)
Datum & Tijd tt [°C] td [°C] ff [km/u] ff [kn] dd ppp [hPa] vv [km] sd [min]
17.01.2019 01:00:00 - - - - - - - -
17.01.2019 00:00:00 - - - - - - - -
16.01.2019 23:00:00 - - - - - - - -
16.01.2019 22:00:00 - - - - - - - -
16.01.2019 21:00:00 - - - - - - - -
16.01.2019 20:00:00 - - - - - - - -
16.01.2019 19:00:00 10,0 5,8 5 3 ZW 1022,9 25 -
16.01.2019 18:00:00 10,6 5,8 5 3 ZW 1022,8 25 -
16.01.2019 17:00:00 11,8 5,4 8 4 ZW 1022,8 30 30
16.01.2019 16:00:00 13,0 5,4 5 3 WZW 1023,0 30 60
16.01.2019 15:00:00 13,0 4,7 8 4 ZW 1023,2 30 60
16.01.2019 14:00:00 13,2 4,6 9 5 ZZW 1023,3 30 60
16.01.2019 13:00:00 13,6 5,8 5 3 Z 1024,0 30 60
16.01.2019 12:00:00 13,8 5,7 4 2 ZO 1024,3 30 60
16.01.2019 11:00:00 13,0 6,4 4 2 NO 1024,6 30 60
16.01.2019 10:00:00 12,0 5,6 5 3 NNO 1024,2 30 60
16.01.2019 09:00:00 10,0 4,2 5 3 N 1023,8 25 60
16.01.2019 08:00:00 7,2 2,7 5 3 N 1023,4 25 12
16.01.2019 07:00:00 6,8 2,3 8 4 N 1023,4 25 0
16.01.2019 06:00:00 - - - - - - - -
16.01.2019 05:00:00 - - - - - - - -
16.01.2019 04:00:00 - - - - - - - -
16.01.2019 03:00:00 - - - - - - - -
16.01.2019 02:00:00 - - - - - - - -
16.01.2019 01:00:00 - - - - - - - -
16.01.2019 00:00:00 - - - - - - - -
15.01.2019 23:00:00 - - - - - - - -
15.01.2019 22:00:00 - - - - - - - -
15.01.2019 21:00:00 - - - - - - - -
15.01.2019 20:00:00 - - - - - - - -
15.01.2019 19:00:00 12,0 6,1 21 11 NO 1018,2 15 -
15.01.2019 18:00:00 12,2 5,8 24 13 NO 1016,2 15 -
15.01.2019 17:00:00 12,8 6,4 22 12 ONO 1015,2 25 60
15.01.2019 16:00:00 13,0 6,8 22 12 ONO 1014,5 25 60
15.01.2019 15:00:00 14,8 7,1 24 13 ONO 1013,1 25 60
15.01.2019 14:00:00 16,6 6,4 18 10 ONO 1012,7 25 60
15.01.2019 13:00:00 16,0 4,4 15 8 ONO 1012,3 25 60
15.01.2019 12:00:00 15,6 3,7 9 5 ONO 1012,2 25 60
15.01.2019 11:00:00 15,2 4,6 8 4 NNO 1012,1 25 60
15.01.2019 10:00:00 13,8 6,7 8 4 N 1011,2 25 60
15.01.2019 09:00:00 11,6 5,2 15 8 NW 1010,4 25 60
15.01.2019 08:00:00 10,0 6,2 11 6 NNW 1009,2 25 0
15.01.2019 07:00:00 10,0 6,4 18 10 NW 1008,0 15 0
15.01.2019 06:00:00 - - - - - - - -
15.01.2019 05:00:00 - - - - - - - -
15.01.2019 04:00:00 - - - - - - - -
15.01.2019 03:00:00 - - - - - - - -
15.01.2019 02:00:00 - - - - - - - -
15.01.2019 01:00:00 - - - - - - - -
15.01.2019 00:00:00 - - - - - - - -
14.01.2019 23:00:00 - - - - - - - -
14.01.2019 22:00:00 - - - - - - - -
14.01.2019 21:00:00 - - - - - - - -
14.01.2019 20:00:00 - - - - - - - -
14.01.2019 19:00:00 12,6 9,6 18 10 NW 999,7 15 -
14.01.2019 18:00:00 13,0 10,2 16 9 WNW 999,0 15 -
14.01.2019 17:00:00 14,6 11,2 13 7 WNW 999,0 15 30
14.01.2019 16:00:00 14,8 11,4 13 7 NW 999,0 15 36
14.01.2019 15:00:00 13,6 11,0 13 7 NW 999,5 15 12
14.01.2019 14:00:00 13,0 10,7 18 10 WNW 999,6 15 12
14.01.2019 13:00:00 13,8 11,5 18 10 WNW 1001,1 10 0
14.01.2019 12:00:00 13,8 12,0 26 14 W 1002,4 20 12
14.01.2019 11:00:00 12,6 11,0 16 9 W 1004,1 20 0
14.01.2019 10:00:00 12,8 10,7 15 8 WNW 1004,1 20 0
14.01.2019 09:00:00 12,2 10,1 13 7 W 1005,2 20 0
14.01.2019 08:00:00 9,8 7,1 4 2 WZW 1005,9 20 0
14.01.2019 07:00:00 9,2 5,6 5 3 WNW 1006,2 20 0
14.01.2019 06:00:00 - - - - - - - -
14.01.2019 05:00:00 - - - - - - - -
14.01.2019 04:00:00 - - - - - - - -
14.01.2019 03:00:00 - - - - - - - -
14.01.2019 02:00:00 - - - - - - - -
14.01.2019 01:00:00 - - - - - - - -
14.01.2019 00:00:00 - - - - - - - -
13.01.2019 23:00:00 - - - - - - - -
13.01.2019 22:00:00 - - - - - - - -
13.01.2019 21:00:00 - - - - - - - -
13.01.2019 20:00:00 - - - - - - - -
13.01.2019 19:00:00 11,8 8,3 8 4 WNW 1010,1 18 -
13.01.2019 18:00:00 12,2 8,1 11 6 WNW 1010,2 18 0
13.01.2019 17:00:00 13,0 8,3 9 5 WNW 1010,5 20 0
13.01.2019 16:00:00 14,8 7,1 15 8 WNW 1011,1 25 36
13.01.2019 15:00:00 15,0 5,5 11 6 WNW 1011,6 25 60
13.01.2019 14:00:00 14,8 5,6 15 8 NNW 1012,1 25 60
13.01.2019 13:00:00 14,0 5,1 18 10 NW 1013,0 25 60
13.01.2019 12:00:00 13,6 5,0 22 12 NW 1014,0 20 60
13.01.2019 11:00:00 12,8 5,5 16 9 NW 1014,3 25 60
13.01.2019 10:00:00 10,8 4,3 13 7 WNW 1014,5 25 60
13.01.2019 09:00:00 9,4 3,2 11 6 W 1014,7 25 60
13.01.2019 08:00:00 6,8 1,3 11 6 NW 1015,0 25 18
13.01.2019 07:00:00 5,4 0,0 11 6 NW 1015,0 25 0
13.01.2019 06:00:00 - - - - - - - -
13.01.2019 05:00:00 - - - - - - - -
13.01.2019 04:00:00 - - - - - - - -
13.01.2019 03:00:00 - - - - - - - -
13.01.2019 02:00:00 - - - - - - - -
13.01.2019 01:00:00 - - - - - - - -
13.01.2019 00:00:00 - - - - - - - -
12.01.2019 23:00:00 - - - - - - - -
12.01.2019 22:00:00 - - - - - - - -
12.01.2019 21:00:00 - - - - - - - -
12.01.2019 20:00:00 - - - - - - - -
12.01.2019 19:00:00 8,2 -0,8 13 7 NW 1014,3 20 -
12.01.2019 18:00:00 9,0 -0,1 16 9 NW 1013,8 25 0
12.01.2019 17:00:00 10,8 0,8 11 6 N 1013,2 25 42
12.01.2019 16:00:00 11,4 3,9 13 7 NNW 1013,0 25 18
12.01.2019 15:00:00 12,0 4,2 15 8 NO 1012,3 25 36
12.01.2019 14:00:00 12,0 3,5 15 8 NNO 1012,2 25 48
12.01.2019 13:00:00 11,2 3,5 16 9 NNO 1012,2 25 42
12.01.2019 12:00:00 10,4 4,5 15 8 N 1012,3 25 18
12.01.2019 11:00:00 9,6 5,2 11 6 NNO 1012,4 25 24
12.01.2019 10:00:00 7,0 4,0 11 6 N 1012,3 20 0
12.01.2019 09:00:00 6,2 3,4 8 4 NW 1012,1 25 0
12.01.2019 08:00:00 6,8 5,0 9 5 NNW 1011,3 25 0
12.01.2019 07:00:00 7,2 4,9 13 7 NNO 1011,1 20 0
12.01.2019 06:00:00 - - - - - - - -
12.01.2019 05:00:00 - - - - - - - -
12.01.2019 04:00:00 - - - - - - - -
12.01.2019 03:00:00 - - - - - - - -
12.01.2019 02:00:00 - - - - - - - -
12.01.2019 01:00:00 - - - - - - - -
12.01.2019 00:00:00 - - - - - - - -
11.01.2019 23:00:00 - - - - - - - -
11.01.2019 22:00:00 - - - - - - - -
11.01.2019 21:00:00 - - - - - - - -
11.01.2019 20:00:00 - - - - - - - -
11.01.2019 19:00:00 9,4 4,6 8 4 NNW 1011,2 20 -
11.01.2019 18:00:00 10,0 5,2 5 3 NW 1011,1 20 -
11.01.2019 17:00:00 10,4 4,1 4 2 O 1010,7 25 0
11.01.2019 16:00:00 11,0 4,5 4 2 ONO 1010,8 25 0
11.01.2019 15:00:00 11,0 4,2 2 1 ONO 1010,8 25 0
11.01.2019 14:00:00 10,4 2,7 4 2 ONO 1011,1 25 0
11.01.2019 13:00:00 11,6 1,8 4 2 NNO 1011,1 25 0
11.01.2019 12:00:00 11,4 0,8 4 2 NW 1011,5 20 0
11.01.2019 11:00:00 10,4 2,5 4 2 W 1012,1 25 0
11.01.2019 10:00:00 8,6 1,5 4 2 NW 1012,0 25 0
11.01.2019 09:00:00 7,6 1,2 9 5 NW 1011,4 30 0
11.01.2019 08:00:00 7,6 1,0 9 5 NNW 1011,3 30 0
11.01.2019 07:00:00 7,0 0,4 11 6 NNW 1010,7 25 0
11.01.2019 06:00:00 - - - - - - - -
11.01.2019 05:00:00 - - - - - - - -
11.01.2019 04:00:00 - - - - - - - -
11.01.2019 03:00:00 - - - - - - - -
11.01.2019 02:00:00 - - - - - - - -
11.01.2019 01:00:00 - - - - - - - -

tt = temperatuur
td = dauwpunt
ff = windsnelheid
dd = windrichting
ppp = luchtdruk
vv = zicht
sd = Zonneschijnduur

Weerstations in de omgeving